TimeCST,TemperatureF,Dew PointF,Humidity,Sea Level PressureIn,VisibilityMPH,Wind Direction,Wind SpeedMPH,Gust SpeedMPH,PrecipitationIn,Events,Conditions,WindDirDegrees,DateUTC
12:53 AM,30.9,21.0,67,30.44,10.0,South,3.5,-,N/A,,Clear,190,2012-12-30 06:53:00
1:53 AM,34.0,21.0,59,30.43,10.0,South,3.5,-,N/A,,Clear,190,2012-12-30 07:53:00
2:53 AM,33.1,21.0,61,30.44,10.0,Calm,Calm,-,N/A,,Clear,0,2012-12-30 08:53:00
3:53 AM,30.0,21.0,69,30.43,10.0,Calm,Calm,-,N/A,,Clear,0,2012-12-30 09:53:00
4:53 AM,30.9,21.0,67,30.42,10.0,South,4.6,-,N/A,,Clear,180,2012-12-30 10:53:00
5:53 AM,30.9,21.0,67,30.43,10.0,SSE,4.6,-,N/A,,Clear,160,2012-12-30 11:53:00
6:53 AM,30.9,21.9,69,30.43,10.0,SSE,4.6,-,N/A,,Clear,160,2012-12-30 12:53:00
7:53 AM,30.9,23.0,72,30.43,10.0,SSE,4.6,-,N/A,,Clear,150,2012-12-30 13:53:00
8:53 AM,35.1,25.0,67,30.45,10.0,SSE,5.8,-,N/A,,Clear,160,2012-12-30 14:53:00
9:53 AM,39.0,25.0,57,30.46,10.0,SSE,10.4,-,N/A,,Clear,150,2012-12-30 15:53:00
10:53 AM,41.0,24.1,51,30.44,10.0,SE,11.5,-,N/A,,Clear,140,2012-12-30 16:53:00
11:53 AM,44.1,21.0,40,30.40,10.0,SSE,11.5,-,N/A,,Clear,150,2012-12-30 17:53:00
12:53 PM,46.0,23.0,40,30.37,10.0,SE,9.2,-,N/A,,Clear,140,2012-12-30 18:53:00
1:53 PM,46.0,21.0,37,30.34,10.0,SSE,10.4,-,N/A,,Clear,160,2012-12-30 19:53:00
2:53 PM,46.9,21.9,37,30.31,10.0,SSE,11.5,18.4,N/A,,Clear,150,2012-12-30 20:53:00
3:53 PM,46.0,19.9,35,30.30,10.0,South,12.7,20.7,N/A,,Clear,170,2012-12-30 21:53:00
4:53 PM,45.0,21.0,39,30.28,10.0,SSE,11.5,19.6,N/A,,Mostly Cloudy,160,2012-12-30 22:53:00
5:53 PM,43.0,27.0,53,30.28,10.0,SSE,8.1,-,0.00,Rain,Light Rain,150,2012-12-30 23:53:00
6:53 PM,43.0,24.1,47,30.25,10.0,SE,9.2,-,0.00,,Partly Cloudy,130,2012-12-31 00:53:00
7:53 PM,43.0,25.0,49,30.25,10.0,SE,12.7,-,N/A,,Scattered Clouds,140,2012-12-31 01:53:00
8:53 PM,43.0,25.0,49,30.25,10.0,SE,15.0,-,N/A,,Clear,140,2012-12-31 02:53:00
9:53 PM,42.1,26.1,53,30.25,10.0,SSE,9.2,-,N/A,,Clear,150,2012-12-31 03:53:00
10:53 PM,42.1,27.0,55,30.24,10.0,SSE,10.4,-,N/A,,Overcast,150,2012-12-31 04:53:00
11:53 PM,42.1,26.1,53,30.22,10.0,SSE,9.2,17.3,N/A,,Overcast,150,2012-12-31 05:53:00